#�ϑ�����,���ϕ���,���ϕ���,�ő啗��,�ő啗����������,�ő�u�ԕ���,�ő�u�ԕ�����������
#(�N����),(m/s)   ,(16����),(m/s)   ,(16����)        ,(m/s)       ,(16����)            
2015/11/27 0:01,0.7,10,0.7,7,1.9,10
2015/11/27 0:02,0.8,10,0.8,10,2.5,8
2015/11/27 0:03,0.8,10,0.8,10,1,11
2015/11/27 0:04,0.8,10,0.8,10,1.1,11
2015/11/27 0:05,0.9,9,0.9,10,3,10
2015/11/27 0:06,0.9,9,0.9,10,3.7,9
2015/11/27 0:07,0.8,9,0.9,10,0.9,12
2015/11/27 0:08,0.9,9,0.9,10,2.1,10
2015/11/27 0:09,1.1,9,1.1,9,3.5,8
2015/11/27 0:10,1.1,9,1.1,9,2.4,9
2015/11/27 0:11,1.1,9,1.1,9,2.7,9
2015/11/27 0:12,1.2,9,1.2,9,3.9,7
2015/11/27 0:13,1.4,9,1.4,9,3.2,13
2015/11/27 0:14,1.5,9,1.5,9,3.1,13
2015/11/27 0:15,1.5,9,1.6,9,2,14
2015/11/27 0:16,1.6,10,1.6,9,3.7,9
2015/11/27 0:17,1.8,10,1.8,10,3.6,11
2015/11/27 0:18,1.9,10,1.9,10,5.2,9
2015/11/27 0:19,1.9,10,1.9,10,3.8,11
2015/11/27 0:20,2,11,2,11,4.9,12
2015/11/27 0:21,2.1,11,2.2,11,6,12
2015/11/27 0:22,2,12,2.1,11,2.6,8
2015/11/27 0:23,2,11,2,11,3.9,9
2015/11/27 0:24,2,11,2,11,3.9,10
2015/11/27 0:25,2.1,10,2.1,11,3.6,9
2015/11/27 0:26,2.1,10,2.1,11,3,8
2015/11/27 0:27,2.1,10,2.1,11,3,8
2015/11/27 0:28,2.1,10,2.1,11,3.2,11
2015/11/27 0:29,2.1,10,2.1,11,5.8,12
2015/11/27 0:30,2.1,10,2.1,11,6,12
2015/11/27 0:31,2,10,2.1,11,3.5,12
2015/11/27 0:32,2.2,10,2.2,10,3.9,8
2015/11/27 0:33,2.2,10,2.2,10,3.5,9
2015/11/27 0:34,2.1,10,2.2,10,3.8,8
2015/11/27 0:35,2.1,10,2.1,10,2.9,8
2015/11/27 0:36,2.1,10,2.1,10,3.6,12
2015/11/27 0:37,2.1,11,2.1,10,3,12
2015/11/27 0:38,2,11,2.1,10,3.1,10
2015/11/27 0:39,2,11,2.1,10,6.5,15
2015/11/27 0:40,1.9,11,2,10,5.4,14
2015/11/27 0:41,1.7,10,1.9,10,1.6,8
2015/11/27 0:42,1.8,10,1.8,10,5.4,12
2015/11/27 0:43,1.8,11,1.8,10,4.5,10
2015/11/27 0:44,1.8,11,1.8,10,2.2,9
2015/11/27 0:45,1.9,11,1.9,10,3.6,9
2015/11/27 0:46,1.9,11,1.9,10,4.8,10
2015/11/27 0:47,1.8,10,1.9,11,2,9
2015/11/27 0:48,2,10,2,11,4.3,8
2015/11/27 0:49,1.9,10,2,11,3.6,9
2015/11/27 0:50,1.9,10,1.9,10,2,9
2015/11/27 0:51,2,10,2,10,2,8
2015/11/27 0:52,1.9,10,2,10,2.6,8
2015/11/27 0:53,1.9,9,1.9,10,2.9,8
2015/11/27 0:54,1.9,9,1.9,10,2.5,10
2015/11/27 0:55,1.8,9,1.9,10,2.7,10
2015/11/27 0:56,1.8,9,1.9,10,3,9
2015/11/27 0:57,1.8,9,1.8,10,2.5,9
2015/11/27 0:58,1.7,9,1.8,10,1.8,10
2015/11/27 0:59,1.7,9,1.7,10,3.2,9
2015/11/27 1:00,1.7,9,1.7,10,3,9
2015/11/27 1:01,1.6,9,1.7,10,1.5,8
2015/11/27 1:02,1.5,9,1.6,10,1.3,9
2015/11/27 1:03,1.5,10,1.5,9,2.2,10
2015/11/27 1:04,1.5,10,1.5,9,3.5,11
2015/11/27 1:05,1.5,10,1.5,9,3.7,10
2015/11/27 1:06,1.6,10,1.6,9,4.2,11
2015/11/27 1:07,1.6,10,1.6,9,2.5,13
2015/11/27 1:08,1.7,10,1.7,9,4.3,10
2015/11/27 1:09,1.7,10,1.8,10,3.2,11
2015/11/27 1:10,2,11,2,11,7.4,13
2015/11/27 1:11,2.1,11,2.1,11,3.5,8
2015/11/27 1:12,2.2,11,2.2,11,1.9,10
2015/11/27 1:13,2.2,11,2.2,11,3,10
2015/11/27 1:14,2.2,10,2.2,11,2.7,10
2015/11/27 1:15,2.1,11,2.1,11,3.2,13
2015/11/27 1:16,2,11,2.1,11,2.1,13
2015/11/27 1:17,1.9,11,2,11,2.1,12
2015/11/27 1:18,1.8,11,1.9,11,2.5,10
2015/11/27 1:19,1.8,11,1.8,11,2.5,10
2015/11/27 1:20,1.6,11,1.8,11,3.6,12
2015/11/27 1:21,1.6,11,1.6,11,3.7,13
2015/11/27 1:22,1.6,11,1.6,11,2,12
2015/11/27 1:23,1.4,12,1.6,11,1.3,11
2015/11/27 1:24,1.4,12,1.4,10,2.7,13
2015/11/27 1:25,1.4,12,1.5,11,2.7,11
2015/11/27 1:26,1.5,11,1.5,11,2.7,11
2015/11/27 1:27,1.5,11,1.5,11,2.1,10
2015/11/27 1:28,1.5,11,1.6,11,2.2,10
2015/11/27 1:29,1.5,11,1.5,11,2.1,9
2015/11/27 1:30,1.5,11,1.5,11,3,9
2015/11/27 1:31,1.4,11,1.4,11,3.2,10
2015/11/27 1:32,1.5,11,1.5,11,1.9,14
2015/11/27 1:33,1.5,11,1.5,11,2,11
2015/11/27 1:34,1.5,11,1.5,11,2,11
2015/11/27 1:35,1.4,11,1.5,11,2,11
2015/11/27 1:36,1.3,11,1.4,11,1.9,12
2015/11/27 1:37,1.2,11,1.3,11,1.9,15
2015/11/27 1:38,1.3,11,1.3,11,4.3,10
2015/11/27 1:39,1.4,11,1.4,11,3.7,11
2015/11/27 1:40,1.5,11,1.5,11,4.4,9
2015/11/27 1:41,1.5,11,1.5,11,3,16
2015/11/27 1:42,1.5,11,1.5,11,2.7,13
2015/11/27 1:43,1.5,11,1.5,11,3.6,9
2015/11/27 1:44,1.6,11,1.6,11,6,14
2015/11/27 1:45,1.9,11,1.9,11,7.2,13
2015/11/27 1:46,2,11,2,11,4.1,9
2015/11/27 1:47,2.2,11,2.2,11,3.8,9
2015/11/27 1:48,2.1,11,2.2,11,3.6,10
2015/11/27 1:49,2,11,2.1,11,2.7,10
2015/11/27 1:50,2,11,2,11,3.1,10
2015/11/27 1:51,1.9,11,2,11,2,10
2015/11/27 1:52,1.8,11,1.9,11,1,6
2015/11/27 1:53,1.7,11,1.8,11,1.8,9
2015/11/27 1:54,1.7,10,1.7,11,3.1,9
2015/11/27 1:55,1.5,10,1.6,11,2.5,9
2015/11/27 1:56,1.4,10,1.4,11,2.6,10
2015/11/27 1:57,1.3,10,1.3,11,2.7,11
2015/11/27 1:58,1.3,10,1.3,11,3.7,12
2015/11/27 1:59,1.4,10,1.4,11,3.3,11
2015/11/27 2:00,1.4,10,1.4,11,3.1,11
2015/11/27 2:01,1.6,10,1.6,11,2.9,9
2015/11/27 2:02,1.7,10,1.7,11,2.5,10
2015/11/27 2:03,1.8,10,1.8,10,2.4,9
2015/11/27 2:04,1.7,10,1.8,10,2.1,9
2015/11/27 2:05,1.7,10,1.7,10,2.6,10
2015/11/27 2:06,1.8,10,1.8,10,3.6,10
2015/11/27 2:07,1.8,10,1.8,10,3,8
2015/11/27 2:08,1.7,10,1.8,10,1.8,10
2015/11/27 2:09,1.7,10,1.7,10,3.5,9
2015/11/27 2:10,1.6,10,1.7,10,2.6,9
2015/11/27 2:11,1.6,9,1.6,10,3,8
2015/11/27 2:12,1.5,9,1.6,10,2.2,8
2015/11/27 2:13,1.5,9,1.5,10,2.7,10
2015/11/27 2:14,1.6,9,1.6,10,2.5,9
2015/11/27 2:15,1.6,9,1.6,10,2,9
2015/11/27 2:16,1.4,9,1.6,10,1.6,9
2015/11/27 2:17,1.4,9,1.4,10,1.8,8
2015/11/27 2:18,1.4,9,1.4,10,1.5,8
2015/11/27 2:19,1.3,9,1.4,10,2,7
2015/11/27 2:20,1.3,9,1.3,10,1.8,8
2015/11/27 2:21,1.2,9,1.3,9,1.1,10
2015/11/27 2:22,1.2,9,1.2,9,1.6,8
2015/11/27 2:23,1.1,9,1.2,9,1.8,9
2015/11/27 2:24,1,9,1.1,9,1.8,9
2015/11/27 2:25,1,9,1,9,1.3,9
2015/11/27 2:26,1,9,1,9,0.9,9
2015/11/27 2:27,0.9,9,0.9,9,0.8,10
2015/11/27 2:28,0.8,9,0.9,9,0.4,11
2015/11/27 2:29,0.7,10,0.8,9,0.3,11
2015/11/27 2:30,0.6,9,0.7,9,0.8,6
2015/11/27 2:31,0.5,9,0.6,9,0.9,7
2015/11/27 2:32,0.5,9,0.5,9,0.9,8
2015/11/27 2:33,0.5,9,0.5,9,1.5,7
2015/11/27 2:34,0.5,9,0.5,9,2.4,8
2015/11/27 2:35,0.6,9,0.6,9,2.6,8
2015/11/27 2:36,0.8,9,0.8,9,2.5,7
2015/11/27 2:37,0.9,9,0.9,9,2.1,8
2015/11/27 2:38,1,9,1,9,1.8,8
2015/11/27 2:39,1.1,8,1.1,8,2.1,9
2015/11/27 2:40,1.2,8,1.2,8,1.9,9
2015/11/27 2:41,1.3,8,1.3,8,1.5,9
2015/11/27 2:42,1.3,8,1.3,8,0.4,14
2015/11/27 2:43,1.2,9,1.3,8,0.3,15
2015/11/27 2:44,1,9,1.2,8,0.4,16
2015/11/27 2:45,0.8,9,1,8,0.4,5
2015/11/27 2:46,0.7,8,0.8,8,1.4,9
2015/11/27 2:47,0.7,8,0.7,8,1.8,9
2015/11/27 2:48,0.6,8,0.7,8,1.4,8
2015/11/27 2:49,0.5,8,0.6,8,1,9
2015/11/27 2:50,0.5,8,0.5,8,2.4,8
2015/11/27 2:51,0.5,8,0.5,8,1.1,11
2015/11/27 2:52,0.6,8,0.6,8,1.4,9
2015/11/27 2:53,0.6,8,0.6,9,0.6,12
2015/11/27 2:54,0.6,9,0.6,9,0.1,16
2015/11/27 2:55,0.6,9,0.6,8,0.1,3
2015/11/27 2:56,0.6,9,0.6,9,1.1,7
2015/11/27 2:57,0.5,8,0.6,8,1.4,6
2015/11/27 2:58,0.6,8,0.6,8,1.6,7
2015/11/27 2:59,0.7,8,0.7,8,1.5,6
2015/11/27 3:00,0.6,7,0.7,8,1.3,6
2015/11/27 3:01,0.6,7,0.6,8,0.9,9
2015/11/27 3:02,0.6,7,0.6,8,1.9,6
2015/11/27 3:03,0.7,6,0.7,8,1.5,6
2015/11/27 3:04,0.7,6,0.7,8,0.5,4
2015/11/27 3:05,0.7,6,0.7,8,0.6,15
2015/11/27 3:06,0.7,5,0.7,8,0.3,1
2015/11/27 3:07,0.6,5,0.6,8,0.5,16
2015/11/27 3:08,0.4,4,0.5,8,0.3,14
2015/11/27 3:09,0.4,2,0.4,8,0.6,2
2015/11/27 3:10,0.4,2,0.4,6,1.4,3
2015/11/27 3:11,0.5,2,0.5,6,1,3
2015/11/27 3:12,0.4,1,0.5,6,0.9,3
2015/11/27 3:13,0.4,1,0.4,6,1.5,4
2015/11/27 3:14,0.4,1,0.4,6,1.3,4
2015/11/27 3:15,0.5,2,0.5,6,0.9,4
2015/11/27 3:16,0.5,2,0.5,5,0.3,5
2015/11/27 3:17,0.5,3,0.5,5,0.5,3
2015/11/27 3:18,0.5,3,0.5,2,0.5,2
2015/11/27 3:19,0.5,3,0.5,2,0.6,5
2015/11/27 3:20,0.5,4,0.5,2,0.8,5
2015/11/27 3:21,0.4,4,0.5,2,0.8,5
2015/11/27 3:22,0.5,4,0.5,2,1,4
2015/11/27 3:23,0.5,4,0.5,2,0.9,2
2015/11/27 3:24,0.4,4,0.5,2,1,16
2015/11/27 3:25,0.5,3,0.5,2,1.9,1
2015/11/27 3:26,0.7,3,0.7,3,1.9,1
2015/11/27 3:27,0.8,3,0.8,3,1.9,1
2015/11/27 3:28,0.8,2,0.8,3,1.8,2
2015/11/27 3:29,0.9,2,0.9,2,1.8,2
2015/11/27 3:30,1,2,1,2,1.8,3
2015/11/27 3:31,1.1,2,1.1,2,1.6,3
2015/11/27 3:32,1.1,2,1.1,2,1.5,4
2015/11/27 3:33,1,2,1.1,2,0.5,2
2015/11/27 3:34,1.1,2,1.1,2,1,1
2015/11/27 3:35,1,2,1.1,2,1.3,1
2015/11/27 3:36,0.9,2,1,2,1,16
2015/11/27 3:37,0.8,2,0.9,2,1,1
2015/11/27 3:38,0.8,2,0.8,2,1.3,1
2015/11/27 3:39,0.8,2,0.8,2,1.5,2
2015/11/27 3:40,0.7,2,0.8,2,0.9,2
2015/11/27 3:41,0.7,2,0.7,2,1.4,3
2015/11/27 3:42,0.7,1,0.7,2,1.3,2
2015/11/27 3:43,0.7,2,0.7,2,0.9,2
2015/11/27 3:44,0.8,2,0.8,2,1.5,3
2015/11/27 3:45,0.8,2,0.8,2,1.4,2
2015/11/27 3:46,0.8,2,0.8,2,1,3
2015/11/27 3:47,0.7,2,0.8,2,0.3,3
2015/11/27 3:48,0.6,2,0.7,2,0.6,4
2015/11/27 3:49,0.6,2,0.6,2,0.4,3
2015/11/27 3:50,0.6,2,0.6,2,0.6,5
2015/11/27 3:51,0.6,3,0.6,2,1.6,5
2015/11/27 3:52,0.6,3,0.6,2,1.6,4
2015/11/27 3:53,0.6,3,0.6,2,1.1,4
2015/11/27 3:54,0.6,3,0.6,2,1.1,4
2015/11/27 3:55,0.6,3,0.6,2,1.5,4
2015/11/27 3:56,0.7,4,0.7,2,1.6,3
2015/11/27 3:57,0.8,4,0.8,4,1.8,3
2015/11/27 3:58,0.8,4,0.8,4,1.4,4
2015/11/27 3:59,0.9,4,0.9,4,1.4,3
2015/11/27 4:00,0.9,4,0.9,4,0.8,4
2015/11/27 4:01,0.8,3,0.9,4,0.4,15
2015/11/27 4:02,0.7,3,0.8,4,0.5,13
2015/11/27 4:03,0.6,2,0.7,4,0.1,3
2015/11/27 4:04,0.6,2,0.6,4,1,3
2015/11/27 4:05,0.5,2,0.6,4,0.3,16
2015/11/27 4:06,0.4,2,0.5,4,0,3
2015/11/27 4:07,0.3,1,0.4,4,0,16
2015/11/27 4:08,0.2,1,0.3,4,0.5,4
2015/11/27 4:09,0.2,1,0.2,4,0.8,5
2015/11/27 4:10,0.2,1,0.2,4,0.8,4
2015/11/27 4:11,0.2,2,0.2,3,0.9,3
2015/11/27 4:12,0.3,3,0.3,3,1,4
2015/11/27 4:13,0.4,3,0.4,2,1.1,4
2015/11/27 4:14,0.4,3,0.4,2,0.8,3
2015/11/27 4:15,0.4,3,0.4,2,0.4,5
2015/11/27 4:16,0.4,3,0.4,2,0.4,4
2015/11/27 4:17,0.4,4,0.4,3,0.3,4
2015/11/27 4:18,0.4,4,0.4,3,0.1,9
2015/11/27 4:19,0.3,4,0.4,3,0.9,8
2015/11/27 4:20,0.3,5,0.3,3,1.3,7
2015/11/27 4:21,0.3,5,0.4,3,1.5,8
2015/11/27 4:22,0.3,6,0.3,3,0.8,6
2015/11/27 4:23,0.3,7,0.3,3,1.1,9
2015/11/27 4:24,0.3,7,0.3,3,0.6,8
2015/11/27 4:25,0.4,7,0.4,3,1.3,6
2015/11/27 4:26,0.5,7,0.5,7,1.4,6
2015/11/27 4:27,0.5,8,0.5,7,1,8
2015/11/27 4:28,0.5,8,0.5,7,0.4,9
2015/11/27 4:29,0.5,8,0.5,7,0.4,9
2015/11/27 4:30,0.4,8,0.5,7,0.5,3
2015/11/27 4:31,0.4,8,0.4,7,0.1,4
2015/11/27 4:32,0.3,8,0.4,7,0.9,7
2015/11/27 4:33,0.3,8,0.3,7,0.9,7
2015/11/27 4:34,0.4,7,0.4,7,1.3,7
2015/11/27 4:35,0.3,7,0.4,7,1.1,8
2015/11/27 4:36,0.3,8,0.3,7,1,9
2015/11/27 4:37,0.3,7,0.3,8,0.9,8
2015/11/27 4:38,0.3,7,0.3,7,1.3,7
2015/11/27 4:39,0.4,7,0.4,8,1.4,7
2015/11/27 4:40,0.5,8,0.5,7,1.3,7
2015/11/27 4:41,0.5,7,0.5,7,1,10
2015/11/27 4:42,0.5,7,0.5,7,0.3,16
2015/11/27 4:43,0.5,7,0.5,7,1.4,8
2015/11/27 4:44,0.6,7,0.6,7,1.8,7
2015/11/27 4:45,0.7,8,0.7,8,2.2,7
2015/11/27 4:46,0.7,7,0.7,8,1.3,7
2015/11/27 4:47,0.8,7,0.8,7,0.8,7
2015/11/27 4:48,0.7,7,0.8,7,0.3,14
2015/11/27 4:49,0.6,7,0.7,7,0.6,9
2015/11/27 4:50,0.5,8,0.6,7,0.5,10
2015/11/27 4:51,0.5,8,0.5,7,0.5,14
2015/11/27 4:52,0.5,8,0.5,7,0.4,9
2015/11/27 4:53,0.5,8,0.5,7,0.8,6
2015/11/27 4:54,0.4,8,0.5,7,0.6,9
2015/11/27 4:55,0.2,8,0.4,7,0.3,5
2015/11/27 4:56,0.2,7,0.2,7,0.3,7
2015/11/27 4:57,0.1,6,0.1,7,0.1,3
2015/11/27 4:58,0.1,7,0.1,7,0.3,11
2015/11/27 4:59,0.1,8,0.1,7,0,14
2015/11/27 5:00,0.1,8,0.1,8,0.1,10
2015/11/27 5:01,0.1,8,0.1,8,0.4,11
2015/11/27 5:02,0.1,8,0.1,8,0.1,10
2015/11/27 5:03,0.1,8,0.1,8,0.1,9
2015/11/27 5:04,0.1,8,0.1,8,0.6,5
2015/11/27 5:05,0.1,7,0.1,8,0.5,4
2015/11/27 5:06,0.1,7,0.1,7,0.8,6
2015/11/27 5:07,0.1,8,0.1,6,0.8,6
2015/11/27 5:08,0.1,8,0.1,7,0.1,10
2015/11/27 5:09,0.2,8,0.2,8,0.6,15
2015/11/27 5:10,0.2,8,0.2,8,0.5,14
2015/11/27 5:11,0.2,8,0.2,8,0.1,14
2015/11/27 5:12,0.2,8,0.2,8,0.4,7
2015/11/27 5:13,0.2,9,0.2,8,0.6,8
2015/11/27 5:14,0.2,10,0.2,8,0.6,10
2015/11/27 5:15,0.2,11,0.2,8,0.4,9
2015/11/27 5:16,0.2,10,0.2,8,1,6
2015/11/27 5:17,0.2,11,0.2,8,0.4,8
2015/11/27 5:18,0.2,12,0.2,8,0.1,1
2015/11/27 5:19,0.1,13,0.2,8,0.1,1
2015/11/27 5:20,0.1,10,0.1,8,0.4,9
2015/11/27 5:21,0.2,9,0.2,8,0.8,9
2015/11/27 5:22,0.2,9,0.2,8,0.4,10
2015/11/27 5:23,0.1,10,0.2,9,0.3,14
2015/11/27 5:24,0.1,12,0.1,10,0.5,15
2015/11/27 5:25,0.2,14,0.2,11,1.6,15
2015/11/27 5:26,0.2,14,0.3,14,1.4,15
2015/11/27 5:27,0.3,14,0.3,14,1.4,15
2015/11/27 5:28,0.4,14,0.4,14,1.3,16
2015/11/27 5:29,0.5,14,0.5,14,1.5,16
2015/11/27 5:30,0.5,14,0.5,14,1.1,15
2015/11/27 5:31,0.5,15,0.5,14,1,16
2015/11/27 5:32,0.6,15,0.6,15,1.3,15
2015/11/27 5:33,0.7,15,0.7,15,1.3,16
2015/11/27 5:34,0.7,15,0.7,15,0.5,1
2015/11/27 5:35,0.6,16,0.7,15,0.3,15
2015/11/27 5:36,0.5,16,0.6,15,0.5,16
2015/11/27 5:37,0.5,16,0.5,15,0.6,3
2015/11/27 5:38,0.4,16,0.5,15,0.9,16
2015/11/27 5:39,0.4,16,0.4,15,1,16
2015/11/27 5:40,0.4,16,0.4,15,0.9,1
2015/11/27 5:41,0.4,16,0.4,15,1,1
2015/11/27 5:42,0.4,16,0.4,15,0.6,1
2015/11/27 5:43,0.3,16,0.4,15,0.3,1
2015/11/27 5:44,0.3,1,0.3,15,0.5,1
2015/11/27 5:45,0.3,1,0.3,16,0.5,1
2015/11/27 5:46,0.3,1,0.3,16,0.3,16
2015/11/27 5:47,0.3,1,0.3,16,0.5,16
2015/11/27 5:48,0.3,1,0.3,16,0.6,16
2015/11/27 5:49,0.3,1,0.3,16,0.5,1
2015/11/27 5:50,0.2,1,0.3,16,0.1,2
2015/11/27 5:51,0.2,1,0.2,16,0.5,4
2015/11/27 5:52,0.2,2,0.2,16,0.8,5
2015/11/27 5:53,0.2,2,0.2,16,0.4,4
2015/11/27 5:54,0.2,2,0.2,1,0.8,5
2015/11/27 5:55,0.2,3,0.2,1,0.4,5
2015/11/27 5:56,0.2,3,0.2,1,0.8,4
2015/11/27 5:57,0.2,4,0.2,1,1,9
2015/11/27 5:58,0.3,4,0.3,1,1.3,8
2015/11/27 5:59,0.4,5,0.4,5,1.3,9
2015/11/27 6:00,0.4,6,0.4,5,0.6,8
2015/11/27 6:01,0.4,7,0.4,5,1,8
2015/11/27 6:02,0.4,7,0.4,5,0.8,11
2015/11/27 6:03,0.5,8,0.5,8,0.9,11
2015/11/27 6:04,0.4,9,0.5,8,0.6,8
2015/11/27 6:05,0.5,9,0.5,8,1.3,9
2015/11/27 6:06,0.6,9,0.6,9,1.5,10
2015/11/27 6:07,0.6,9,0.6,9,1.3,9
2015/11/27 6:08,0.5,9,0.6,9,0.9,10
2015/11/27 6:09,0.5,9,0.5,9,1.4,8
2015/11/27 6:10,0.6,9,0.6,9,2.4,9
2015/11/27 6:11,0.7,9,0.7,9,2.2,9
2015/11/27 6:12,0.7,9,0.7,9,1.9,9
2015/11/27 6:13,0.8,9,0.8,9,2,9
2015/11/27 6:14,0.9,9,0.9,9,2.2,9
2015/11/27 6:15,0.9,9,0.9,9,2.1,9
2015/11/27 6:16,0.9,9,0.9,9,2,10
2015/11/27 6:17,1,9,1,9,1.9,10
2015/11/27 6:18,1,10,1,9,1.5,10
2015/11/27 6:19,1.1,10,1.1,10,1.6,8
2015/11/27 6:20,1,9,1.1,10,1.1,9
2015/11/27 6:21,0.8,9,0.9,10,0.1,6
2015/11/27 6:22,0.8,10,0.8,10,1,11
2015/11/27 6:23,0.8,10,0.8,10,0.8,12
2015/11/27 6:24,0.7,10,0.7,10,0.9,10
2015/11/27 6:25,0.7,10,0.7,10,0.9,11
2015/11/27 6:26,0.7,10,0.7,10,1.1,11
2015/11/27 6:27,0.6,10,0.6,10,1,10
2015/11/27 6:28,0.6,10,0.6,10,1.4,9
2015/11/27 6:29,0.6,10,0.6,10,1.1,9
2015/11/27 6:30,0.5,10,0.6,9,0.1,2
2015/11/27 6:31,0.6,10,0.6,9,1.6,9
2015/11/27 6:32,0.7,10,0.7,10,1.5,9
2015/11/27 6:33,0.7,10,0.7,10,1.5,9
2015/11/27 6:34,0.7,9,0.7,10,1.4,9
2015/11/27 6:35,0.8,9,0.8,9,1.5,9
2015/11/27 6:36,0.8,9,0.8,9,1.4,9
2015/11/27 6:37,0.8,9,0.8,9,1.3,9
2015/11/27 6:38,0.8,9,0.8,9,1.3,10
2015/11/27 6:39,0.9,9,0.9,9,1.5,9
2015/11/27 6:40,0.9,9,0.9,9,1,9
2015/11/27 6:41,0.8,9,0.9,9,0.6,10
2015/11/27 6:42,0.7,9,0.8,9,0.5,7
2015/11/27 6:43,0.7,9,0.7,9,0.8,6
2015/11/27 6:44,0.6,9,0.7,9,0.5,5
2015/11/27 6:45,0.6,9,0.6,9,0.4,13
2015/11/27 6:46,0.4,9,0.5,9,0.3,5
2015/11/27 6:47,0.4,8,0.4,9,1.1,4
2015/11/27 6:48,0.4,7,0.4,9,1.1,4
2015/11/27 6:49,0.4,6,0.4,9,0.5,4
2015/11/27 6:50,0.3,6,0.4,9,0.6,5
2015/11/27 6:51,0.3,5,0.4,9,0.5,4
2015/11/27 6:52,0.3,5,0.3,9,0.5,6
2015/11/27 6:53,0.3,5,0.3,9,0.4,5
2015/11/27 6:54,0.3,5,0.3,8,0.1,5
2015/11/27 6:55,0.3,5,0.3,9,0.8,9
2015/11/27 6:56,0.4,5,0.4,9,1.1,8
2015/11/27 6:57,0.4,6,0.4,8,0.9,9
2015/11/27 6:58,0.3,6,0.4,7,1,9
2015/11/27 6:59,0.3,7,0.4,6,0.8,9
2015/11/27 7:00,0.4,7,0.4,5,0.8,9
2015/11/27 7:01,0.3,7,0.4,5,0.5,8
2015/11/27 7:02,0.3,8,0.3,5,0.1,15
2015/11/27 7:03,0.3,9,0.3,5,0.1,14
2015/11/27 7:04,0.3,9,0.3,5,0.5,15
2015/11/27 7:05,0.3,9,0.3,5,0.8,16
2015/11/27 7:06,0.4,12,0.4,5,1.1,1
2015/11/27 7:07,0.4,15,0.4,6,1.1,16
2015/11/27 7:08,0.4,16,0.4,6,1.9,16
2015/11/27 7:09,0.4,16,0.4,7,1.3,1
2015/11/27 7:10,0.6,16,0.6,16,2.7,16
2015/11/27 7:11,0.8,16,0.8,16,2.2,1
2015/11/27 7:12,0.9,16,0.9,16,2.1,16
2015/11/27 7:13,1,16,1,16,1.5,15
2015/11/27 7:14,1,16,1,16,0.9,15
2015/11/27 7:15,1,16,1,16,0.9,7
2015/11/27 7:16,1,16,1,16,1.4,8
2015/11/27 7:17,1,16,1,16,2.2,10
2015/11/27 7:18,0.9,15,1,16,2,10
2015/11/27 7:19,0.9,14,0.9,16,1.1,7
2015/11/27 7:20,0.8,12,0.9,16,2.2,9
2015/11/27 7:21,0.8,10,0.8,16,3,8
2015/11/27 7:22,0.8,9,0.8,16,2.2,9
2015/11/27 7:23,0.8,9,0.8,16,2.6,9
2015/11/27 7:24,1,8,1,16,3.7,9
2015/11/27 7:25,1.2,9,1.2,9,3.3,9
2015/11/27 7:26,1.3,9,1.3,9,3.8,9
2015/11/27 7:27,1.5,9,1.5,9,3.9,8
2015/11/27 7:28,1.6,9,1.6,9,3.5,8
2015/11/27 7:29,1.7,9,1.7,9,3.6,8
2015/11/27 7:30,1.7,9,1.7,9,1.5,9
2015/11/27 7:31,1.6,9,1.7,9,2.1,10
2015/11/27 7:32,1.7,9,1.7,9,2.5,13
2015/11/27 7:33,1.7,10,1.7,9,2.6,12
2015/11/27 7:34,1.6,10,1.7,9,1.6,12
2015/11/27 7:35,1.6,11,1.6,9,1.6,12
2015/11/27 7:36,1.5,11,1.6,9,2.1,14
2015/11/27 7:37,1.3,12,1.5,9,2,15
2015/11/27 7:38,1.2,12,1.3,9,2.5,14
2015/11/27 7:39,1.2,13,1.2,9,1.8,16
2015/11/27 7:40,1.2,13,1.2,9,1.1,12
2015/11/27 7:41,1.1,13,1.2,9,1.1,9
2015/11/27 7:42,1,13,1.1,9,1.1,6
2015/11/27 7:43,1,13,1,10,2,10
2015/11/27 7:44,1,13,1,10,2,10
2015/11/27 7:45,0.9,12,1,11,2,11
2015/11/27 7:46,0.9,12,0.9,11,1.4,10
2015/11/27 7:47,0.9,12,0.9,12,1.8,10
2015/11/27 7:48,0.8,12,0.9,12,1.9,11
2015/11/27 7:49,0.9,11,0.9,13,3,10
2015/11/27 7:50,0.9,11,0.9,13,2,9
2015/11/27 7:51,1,11,1,13,2.1,9
2015/11/27 7:52,1.1,11,1.1,11,2.9,9
2015/11/27 7:53,1.1,11,1.1,11,3.8,10
2015/11/27 7:54,1.2,11,1.2,11,3.9,9
2015/11/27 7:55,1.3,11,1.3,11,3.8,9
2015/11/27 7:56,1.6,10,1.6,10,3.6,10
2015/11/27 7:57,1.7,10,1.7,10,3,10
2015/11/27 7:58,1.7,10,1.7,10,2.7,9
2015/11/27 7:59,1.6,10,1.7,10,3,9
2015/11/27 8:00,1.6,10,1.6,10,1.9,10
2015/11/27 8:01,1.7,10,1.7,10,2.5,10
2015/11/27 8:02,1.6,10,1.7,10,1.6,9
2015/11/27 8:03,1.5,10,1.6,10,1.4,10
2015/11/27 8:04,1.3,10,1.5,10,1,8
2015/11/27 8:05,1.1,10,1.3,10,1.9,10
2015/11/27 8:06,0.9,10,1.1,10,1.4,9
2015/11/27 8:07,0.8,10,0.9,10,2.5,9
2015/11/27 8:08,1,10,1,10,2.4,10
2015/11/27 8:09,1,10,1,10,2.7,10
2015/11/27 8:10,1,10,1,10,2,10
2015/11/27 8:11,1,10,1,10,2,10
2015/11/27 8:12,1.1,10,1.1,10,2.5,11
2015/11/27 8:13,1.2,10,1.2,10,2.9,9
2015/11/27 8:14,1.4,10,1.4,10,2.4,10
2015/11/27 8:15,1.5,10,1.5,10,3.1,10
2015/11/27 8:16,1.4,10,1.5,10,2.5,9
2015/11/27 8:17,1.5,10,1.5,10,3.9,9
2015/11/27 8:18,1.6,10,1.6,10,4.2,9
2015/11/27 8:19,1.6,10,1.6,10,4.1,8
2015/11/27 8:20,1.7,10,1.7,9,3.7,8
2015/11/27 8:21,1.7,10,1.7,9,2.9,9
2015/11/27 8:22,1.6,10,1.7,9,3.2,8
2015/11/27 8:23,1.7,10,1.7,9,4.9,9
2015/11/27 8:24,1.7,9,1.8,10,3.9,9
2015/11/27 8:25,1.8,9,1.8,10,4.4,10
2015/11/27 8:26,2,10,2,9,6.1,9
2015/11/27 8:27,1.9,10,2,9,4.2,9
2015/11/27 8:28,2,9,2,9,3.9,10
2015/11/27 8:29,2,10,2,9,4.1,8
2015/11/27 8:30,2,10,2,9,4.3,10
2015/11/27 8:31,2.2,10,2.2,10,4.1,10
2015/11/27 8:32,2.2,10,2.3,10,4.2,10
2015/11/27 8:33,2.1,10,2.2,10,3.7,8
2015/11/27 8:34,2.1,10,2.1,10,5.6,9
2015/11/27 8:35,2.2,9,2.2,10,5.4,8
2015/11/27 8:36,2.2,9,2.2,10,5,9
2015/11/27 8:37,2.5,9,2.5,9,5.5,9
2015/11/27 8:38,2.5,9,2.5,9,4.3,9
2015/11/27 8:39,2.5,9,2.5,9,4.3,8
2015/11/27 8:40,2.5,9,2.5,9,4.3,9
2015/11/27 8:41,2.6,9,2.6,9,5.7,9
2015/11/27 8:42,2.8,9,2.8,9,5.5,10
2015/11/27 8:43,2.8,9,2.8,9,4.8,9
2015/11/27 8:44,2.7,9,2.7,9,3.7,9
2015/11/27 8:45,2.7,9,2.7,9,5.2,10
2015/11/27 8:46,2.6,9,2.7,9,5.2,9
2015/11/27 8:47,2.4,9,2.5,9,3.5,8
2015/11/27 8:48,2.5,9,2.5,9,6.2,9
2015/11/27 8:49,2.4,9,2.5,9,4.8,9
2015/11/27 8:50,2.4,9,2.5,9,4.8,9
2015/11/27 8:51,2.4,9,2.4,9,5.2,7
2015/11/27 8:52,2.3,9,2.4,9,4.3,8
2015/11/27 8:53,2.4,9,2.4,9,5.1,8
2015/11/27 8:54,2.4,9,2.4,9,4.9,10
2015/11/27 8:55,2.4,9,2.5,9,4.3,9
2015/11/27 8:56,2.4,9,2.4,9,4.5,9
2015/11/27 8:57,2.6,9,2.6,9,5.6,10
2015/11/27 8:58,2.5,9,2.6,9,5.4,9
2015/11/27 8:59,2.6,9,2.6,9,4.5,9
2015/11/27 9:00,2.5,9,2.6,9,5,8
2015/11/27 9:01,2.6,9,2.6,9,5.8,10
2015/11/27 9:02,2.6,9,2.6,9,4.8,11
2015/11/27 9:03,2.6,10,2.7,10,4.5,12
2015/11/27 9:04,2.6,10,2.6,10,3.9,8
2015/11/27 9:05,2.5,10,2.6,10,5.5,8
2015/11/27 9:06,2.4,10,2.5,10,3.7,10
2015/11/27 9:07,2.4,10,2.4,10,4.2,11
2015/11/27 9:08,2.4,10,2.4,10,3.9,12
2015/11/27 9:09,2.2,10,2.4,10,2.5,9
2015/11/27 9:10,2.1,10,2.2,10,2,10
2015/11/27 9:11,2,11,2.1,10,4.3,10
2015/11/27 9:12,1.9,11,2,10,4.4,10
2015/11/27 9:13,2,10,2,10,4.4,9
2015/11/27 9:14,2,10,2,10,4.3,9
2015/11/27 9:15,1.9,10,2,10,2.2,8
2015/11/27 9:16,1.9,10,2,10,3.1,10
2015/11/27 9:17,1.8,10,1.9,10,3.1,9
2015/11/27 9:18,1.8,10,1.8,10,3.9,10
2015/11/27 9:19,1.9,10,1.9,11,4.1,10
2015/11/27 9:20,2.1,10,2.1,10,4.3,10
2015/11/27 9:21,2.2,10,2.2,10,3.9,10
2015/11/27 9:22,2.2,10,2.2,10,3.8,10
2015/11/27 9:23,2.1,10,2.2,10,5.2,9
2015/11/27 9:24,2.2,10,2.2,10,2.9,11
2015/11/27 9:25,2.3,10,2.3,10,4.1,9
2015/11/27 9:26,2.4,10,2.4,10,3.6,11
2015/11/27 9:27,2.3,10,2.4,10,3.5,10
2015/11/27 9:28,2.2,10,2.3,10,3.5,9
2015/11/27 9:29,2.2,10,2.2,10,4.7,10
2015/11/27 9:30,2.2,10,2.2,10,5.5,9
2015/11/27 9:31,2.2,10,2.2,10,5,9
2015/11/27 9:32,2.4,10,2.4,10,5.5,10
2015/11/27 9:33,2.4,10,2.4,10,5,10
2015/11/27 9:34,2.6,10,2.6,10,6.1,10
2015/11/27 9:35,2.6,10,2.6,10,5.6,9
2015/11/27 9:36,2.8,10,2.8,10,7.4,10
2015/11/27 9:37,2.9,10,2.9,10,6,10
2015/11/27 9:38,2.9,10,2.9,10,3.6,11
2015/11/27 9:39,3,10,3,10,4.5,9
2015/11/27 9:40,3.1,10,3.1,10,7.7,9
2015/11/27 9:41,3.1,10,3.1,10,8.1,10
2015/11/27 9:42,3.2,10,3.2,10,7.7,9
2015/11/27 9:43,3.3,10,3.3,10,8.3,11
2015/11/27 9:44,3.6,10,3.6,10,8.1,11
2015/11/27 9:45,3.9,10,3.9,10,7.5,10
2015/11/27 9:46,4.1,10,4.1,10,8.6,10
2015/11/27 9:47,4.4,10,4.4,10,8.4,10
2015/11/27 9:48,4.7,10,4.7,10,8.2,9
2015/11/27 9:49,5,10,5,10,8.4,10
2015/11/27 9:50,5,10,5.1,10,9.5,11
2015/11/27 9:51,5.1,10,5.2,10,7.4,11
2015/11/27 9:52,5.1,11,5.2,10,6.5,12
2015/11/27 9:53,5,11,5.1,10,5.5,11
2015/11/27 9:54,4.7,11,5,10,6,10
2015/11/27 9:55,4.7,11,4.7,10,7.7,9
2015/11/27 9:56,4.6,10,4.7,10,8.5,9
2015/11/27 9:57,4.4,10,4.5,10,7.6,10
2015/11/27 9:58,4.5,10,4.5,10,7.2,11
2015/11/27 9:59,4.4,10,4.5,10,7.4,10
2015/11/27 10:00,4.4,10,4.4,10,7.4,10
2015/11/27 10:01,4.5,10,4.5,10,5.6,10
2015/11/27 10:02,4.4,10,4.5,11,5.1,12
2015/11/27 10:03,4.4,10,4.4,10,5.2,11
2015/11/27 10:04,4.2,10,4.3,11,3.3,9
2015/11/27 10:05,4,10,4.2,11,6.5,9
2015/11/27 10:06,4,10,4.1,10,6.8,10
2015/11/27 10:07,4,10,4.1,10,6.1,10
2015/11/27 10:08,3.8,10,4,10,6.9,9
2015/11/27 10:09,3.5,10,3.7,10,8.3,9
2015/11/27 10:10,3.5,10,3.6,10,6.3,10
2015/11/27 10:11,3.4,10,3.5,10,6.4,10
2015/11/27 10:12,3.5,10,3.5,10,7.6,10
2015/11/27 10:13,3.6,10,3.6,10,7,11
2015/11/27 10:14,3.9,10,3.9,10,7.4,10
2015/11/27 10:15,3.8,10,3.9,10,6.3,10
2015/11/27 10:16,3.7,10,3.8,10,4.2,11
2015/11/27 10:17,3.6,10,3.6,10,4.4,10
2015/11/27 10:18,3.7,10,3.7,10,6.5,10
2015/11/27 10:19,3.9,10,3.9,10,6.3,10
2015/11/27 10:20,4,10,4,10,6.8,10
2015/11/27 10:21,4,10,4.1,10,6.3,10
2015/11/27 10:22,4,10,4,10,6.9,10
2015/11/27 10:23,3.9,10,4,10,6.4,10
2015/11/27 10:24,3.8,10,3.9,10,6,11
2015/11/27 10:25,3.9,10,3.9,10,6.3,10
2015/11/27 10:26,4,10,4,10,6.3,9
2015/11/27 10:27,3.9,10,4,10,4.5,9
2015/11/27 10:28,3.8,10,3.9,10,5,10
2015/11/27 10:29,3.7,10,3.8,10,5.8,10
2015/11/27 10:30,3.5,10,3.6,10,5.8,9
2015/11/27 10:31,3.5,10,3.5,10,6.9,10
2015/11/27 10:32,3.6,10,3.6,10,8.1,9
2015/11/27 10:33,3.7,10,3.7,10,7,9
2015/11/27 10:34,3.6,10,3.6,10,7.5,9
2015/11/27 10:35,3.5,10,3.6,10,7.5,9
2015/11/27 10:36,3.4,10,3.5,10,5.8,9
2015/11/27 10:37,3.6,10,3.6,10,6.5,8
2015/11/27 10:38,3.6,10,3.7,10,5,11
2015/11/27 10:39,3.5,10,3.6,10,6,10
2015/11/27 10:40,3.5,10,3.5,10,4.7,11
2015/11/27 10:41,3.4,10,3.5,10,6.4,9
2015/11/27 10:42,3.3,10,3.4,10,4.8,10
2015/11/27 10:43,3.2,10,3.3,10,5.6,10
2015/11/27 10:44,3,10,3.1,10,3,8
2015/11/27 10:45,2.9,10,2.9,10,4.2,11
2015/11/27 10:46,2.9,10,2.9,10,5.5,10
2015/11/27 10:47,2.8,10,2.8,10,6.2,9
2015/11/27 10:48,2.7,10,2.8,10,3.9,10
2015/11/27 10:49,2.7,10,2.8,10,4.5,10
2015/11/27 10:50,2.8,10,2.8,10,4.9,10
2015/11/27 10:51,2.6,10,2.8,10,4.1,11
2015/11/27 10:52,2.6,11,2.6,10,3.9,13
2015/11/27 10:53,2.6,11,2.6,10,4.8,12
2015/11/27 10:54,2.7,11,2.7,10,3.6,12
2015/11/27 10:55,2.6,11,2.7,10,3.6,11
2015/11/27 10:56,2.6,11,2.6,10,4.2,9
2015/11/27 10:57,2.4,11,2.6,10,2.7,11
2015/11/27 10:58,2.3,11,2.3,10,2.1,10
2015/11/27 10:59,2.2,11,2.3,10,3.9,11
2015/11/27 11:00,2.2,11,2.3,10,4.7,11
2015/11/27 11:01,2.3,11,2.3,11,5.4,9
2015/11/27 11:02,2.4,11,2.4,11,4.1,10